Clearfield, PA

5:45 PM EST on February 22, 2018 (GMT -0500)
Clearfield-Lawrence

Weather History for KFIG - June, 2013

Change the Weather History Date:

Wednesday, June 26, 2013

  Actual Average (KDUJ) Record (KDUJ)
Temperature  
Mean Temperature 70 °F -  
Max Temperature 79 °F 76 °F 91 °F (1966)
Min Temperature 62 °F 55 °F 45 °F (1986)
Cooling Degree Days 5    
Growing Degree Days 20 (Base 50)    
Moisture  
Dew Point 63 °F    
Average Humidity 84    
Maximum Humidity 100    
Minimum Humidity 58    
Precipitation  
Precipitation 0.19 in - - ()
Sea Level Pressure  
Sea Level Pressure 29.91 in    
Wind  
Wind Speed 7 mph (SW)    
Max Wind Speed 12 mph    
Max Gust Speed 17 mph    
Visibility 9 miles    
Events Rain , Thunderstorm    
Averages and records for this station are not official NWS values.
T = Trace of Precipitation, MM = Missing Value Source: NWS Daily Summary

Daily Weather History Graph

Daily Weather History Graph

Search for Another Location

Airport or City:

Trip Planner

Search our weather history database for the weather conditions in past years. The results will help you decide how hot, cold, wet, or windy it might be!

Date:

Astronomy

Jun. 26, 2013 Rise Set
Actual Time 5:43 AM EDT 8:50 PM EDT
Civil Twilight 5:09 AM EDT 9:23 PM EDT
Nautical Twilight 4:26 AM EDT 10:06 PM EDT
Astronomical Twilight 3:35 AM EDT 10:57 PM EDT
Moon 11:09 PM EDT (6/26) 9:34 AM EDT (6/26)
Length of Visible Light 16h 14m
Length of Day
15h 07m
Waning Gibbous, 85% of the Moon is Illuminated
Jun 26
Waning Gibbous
Jun 30
Last Quarter
Jul 8
New
Jul 15
First Quarter
Jul 22
Full

Hourly Weather History & Observations

Time (EDT) Temp. Dew Point Humidity Pressure Visibility Wind Dir Wind Speed Gust Speed Precip Events Conditions
12:02 AM 64.4 °F 62.6 °F 94% 29.99 in 10.0 mi SW 6.9 mph - N/A Thunderstorm Overcast
12:38 AM 64.4 °F 62.6 °F 94% 29.96 in 6.0 mi South 5.8 mph - 0.00 in Rain Light Rain
12:54 AM 64.0 °F 62.1 °F 93% 29.94 in 8.0 mi SSW 10.4 mph - 0.00 in Rain Light Rain
1:54 AM 64.0 °F 62.1 °F 93% 29.96 in 5.0 mi SSW 8.1 mph - 0.09 in Rain Rain
2:20 AM 64.4 °F 62.6 °F 94% 29.99 in 6.0 mi SSW 9.2 mph - 0.03 in Rain Light Rain
2:54 AM 64.0 °F 63.0 °F 96% 29.94 in 6.0 mi SSW 8.1 mph - 0.08 in Rain Light Rain
3:07 AM 64.4 °F 62.6 °F 94% 29.96 in 4.0 mi SSW 10.4 mph - 0.00 in Rain Light Rain
3:23 AM 64.4 °F 62.6 °F 94% 29.95 in 4.0 mi SW 8.1 mph - 0.01 in Rain Light Rain
3:40 AM 64.4 °F 62.6 °F 94% 29.94 in 8.0 mi SSW 8.1 mph - 0.01 in Rain Light Rain
3:54 AM 63.0 °F 62.1 °F 97% 29.91 in 10.0 mi SW 6.9 mph - 0.02 in Rain Light Rain
4:54 AM 63.0 °F 61.0 °F 93% 29.91 in 10.0 mi SW 9.2 mph - 0.00 in   Scattered Clouds
5:54 AM 63.0 °F 61.0 °F 93% 29.91 in 10.0 mi SSW 8.1 mph - N/A   Mostly Cloudy
6:09 AM 62.6 °F 62.6 °F 100% 29.93 in 10.0 mi SSW 6.9 mph - N/A   Mostly Cloudy
6:54 AM 64.0 °F 62.1 °F 93% 29.92 in 8.0 mi SSW 6.9 mph - N/A   Mostly Cloudy
7:10 AM 64.4 °F 62.6 °F 94% 29.94 in 6.0 mi SSW 8.1 mph - 0.00 in Rain Light Rain
7:54 AM 64.9 °F 64.0 °F 97% 29.90 in 6.0 mi South 6.9 mph - 0.00 in   Mostly Cloudy
8:11 AM 66.2 °F 64.4 °F 94% 29.89 in 10.0 mi South 9.2 mph - N/A   Mostly Cloudy
8:54 AM 66.9 °F 64.0 °F 90% 29.87 in 10.0 mi SW 8.1 mph - N/A   Overcast
9:38 AM 69.8 °F 64.4 °F 83% 29.90 in 10.0 mi SW 6.9 mph - N/A   Scattered Clouds
9:54 AM 69.1 °F 64.9 °F 87% 29.89 in 10.0 mi SW 9.2 mph - N/A   Scattered Clouds
10:54 AM 73.0 °F 64.9 °F 76% 29.91 in 10.0 mi Variable 6.9 mph - N/A   Partly Cloudy
11:31 AM 73.4 °F 64.4 °F 73% 29.93 in 10.0 mi West 8.1 mph - N/A   Mostly Cloudy
11:54 AM 73.9 °F 64.0 °F 71% 29.91 in 10.0 mi West 11.5 mph 17.3 mph N/A   Overcast
12:17 PM 73.4 °F 64.4 °F 73% 29.94 in 10.0 mi WNW 8.1 mph - N/A   Mostly Cloudy
12:54 PM 72.0 °F 63.0 °F 73% 29.92 in 10.0 mi WNW 6.9 mph - N/A   Overcast
1:54 PM 73.9 °F 64.0 °F 71% 29.92 in 10.0 mi WNW 5.8 mph - N/A   Partly Cloudy
2:54 PM 73.9 °F 62.1 °F 66% 29.90 in 10.0 mi WNW 4.6 mph - N/A   Overcast
3:54 PM 75.9 °F 64.0 °F 67% 29.89 in 10.0 mi Variable 4.6 mph - N/A   Overcast
4:54 PM 77.0 °F 62.1 °F 60% 29.88 in 10.0 mi West 8.1 mph - N/A   Scattered Clouds
5:54 PM 78.1 °F 62.1 °F 58% 29.86 in 10.0 mi West 8.1 mph - N/A   Mostly Cloudy
6:54 PM 77.0 °F 63.0 °F 62% 29.85 in 10.0 mi Variable 4.6 mph - N/A   Partly Cloudy
7:54 PM 75.9 °F 62.1 °F 62% 29.85 in 10.0 mi Calm Calm - N/A   Clear
8:54 PM 72.0 °F 63.0 °F 73% 29.86 in 10.0 mi Calm Calm - N/A   Clear
9:54 PM 66.9 °F 64.9 °F 93% 29.88 in 10.0 mi North 4.6 mph - N/A   Clear
10:54 PM 64.9 °F 64.0 °F 97% 29.87 in 9.0 mi North 3.5 mph - N/A   Clear
11:54 PM 64.0 °F 63.0 °F 96% 29.86 in 7.0 mi NNW 3.5 mph - N/A   Clear